COSMOS 397 DEB *

Satellite information

Favourite Embed

Satellite Type and Status

DEBRISIN ORBIT

Key statistics

Satellite COSMOS 397 DEB * at a glance.

Uptime

19856

Days in orbit

Revolutions

≈ 14.0

Per day

Orbit

LEO

Low Earth Orbit

Inclination

66.8

Latest

Satellite identification and parameters

Extended collection of information and parameters for COSMOS 397 DEB *.

Object identification

Identified? True

Debris? True

Object name: COSMOS 397 DEB *

International designator: 1971-015BL

Object number (NORAD): 5414

Object ID (CCSDS): 5414

Country: COMMONWEALTH OF INDEPENDENT STATES (CIS)

Current information (Y/N): Y

RCS size: SMALL

Orbital parameters

Period: 102.646 minutes

Inclination: 66.7654 deg

SMA: 7261.96 km

Apoapsis: 939.659 km

Periapsis: 827.99 km

RAAN: 196.8393 deg

Eccentricy: 0.0076886

Argument of periapsis: 130.1766 deg

Mean anomaly: 230.6084 deg

Mean motion: 14.02884779 rev/day

Mean motion (dot): 0.00000064 rev/day2

B* drag term: 0.000089885 1/REarth

Two-line elements (TLE)

Creation date: July 6, 2025, 6:05 p.m.

Reference frame: TEME

Reference center: EARTH

Epoch: July 6, 2025, 10:26 a.m. UTC

TLE line 0: 0 COSMOS 397 DEB *

TLE line 1: 1 05414U 71015BL 25187.43497187 .00000064 00000-0 89885-4 0 9996

TLE line 2: 2 05414 66.7654 196.8393 0076886 130.1766 230.6084 14.02884779776809

Live tracking on map

Real-time ground track for satellite COSMOS 397 DEB *.

In-orbit conjunctions

There are no conjunctions computed for COSMOS 397 DEB *, at the moment. Check back to stay up to date, as we update our databases every day.

Go to all conjunctions

Associated space launch

The I2P satellites were the first soviet coorbital ASAT system.

COSMOS 397 DEB * was lifted into orbit during the mission ‘Tsiklon-2 | I2P 6’, on board a Tsiklon-2 space rocket.

The launch took place on Feb. 25, 1971, 11:11 a.m. from 90/20.

For more information about the launch, click the button.

Launch to space Tsiklon-2 | I2P 6
Tsiklon-2 | I2P 6

Agency: N/A

Status: Launch Successful

Launch date: Feb. 25, 1971, 11:11 a.m. UTC

Rocket: Tsiklon-2

Launch pad: 90/20

Location: Baikonur Cosmodrome, Republic of Kazakhstan

...

Latest news about this satellite

There are no fresh news available about this satellite. Check back as we update our databases every day.


Newsletter sign-up

Weekly statistics, charts and insights to help you stay on top of the space industry.